Weather History for KBTM - February, 2012

Change the Weather History Date:

Wednesday, February 15, 2012

  Actual Average Record
Temperature  
Mean Temperature 19 °F 22 °F  
Max Temperature 31 °F 35 °F 53 °F (1991)
Min Temperature 7 °F 9 °F -38 °F (1936)
Degree Days  
Heating Degree Days 46 43  
Month to date heating degree days 618 663  
Since 1 July heating degree days 5571 6034  
Cooling Degree Days 0 0  
Month to date cooling degree days 0 0  
Year to date cooling degree days 0 0  
Moisture  
Dew Point 10 °F    
Average Humidity 68    
Maximum Humidity 88    
Minimum Humidity 47    
Precipitation  
Precipitation 0.00 in 0.01 in 0.24 in (1921)
Month to date precipitation 0.08 0.21  
Year to date precipitation 0.19 0.68  
Sea Level Pressure  
Sea Level Pressure 30.20 in    
Wind  
Wind Speed 5 mph (NW)    
Max Wind Speed 18 mph    
Max Gust Speed 24 mph    
Visibility 10 miles    
Events      
T = Trace of Precipitation, MM = Missing Value Source: NWS Daily Summary

Daily Weather History Graph

Daily Weather History Graph

Search for Another Location

Airport or City:

Trip Planner

Search our weather history database for the weather conditions in past years. The results will help you decide how hot, cold, wet, or windy it might be!

Date:

Astronomy

Feb. 15, 2012 Rise Set
Actual Time 7:33 AM MST 5:55 PM MST
Civil Twilight 7:02 AM MST 6:26 PM MST
Nautical Twilight 6:27 AM MST 7:01 PM MST
Astronomical Twilight 5:52 AM MST 7:36 PM MST
Moon 2:40 AM MST (2/15) 11:43 AM MST (2/15)
Length of Visible Light 11h 24m
Length of Day
10h 22m
Last Quarter, 38% of the Moon is Illuminated
Feb 15
Last Quarter
Feb 21
New
Feb 29
First Quarter
Mar 8
Full
Mar 14
Last Quarter

Hourly Weather History & Observations

Time (MST) Temp. Windchill Dew Point Humidity Pressure Visibility Wind Dir Wind Speed Gust Speed Precip Events Conditions
12:53 AM 12.0 °F 5.9 °F 7.0 °F 80% 30.01 in 10.0 mi SE 3.5 mph - N/A   Partly Cloudy
1:53 AM 10.9 °F -0.8 °F 6.1 °F 81% 30.03 in 10.0 mi SSE 8.1 mph - N/A   Clear
2:53 AM 10.9 °F - 6.1 °F 81% 30.04 in 10.0 mi Calm Calm - N/A   Clear
3:53 AM 8.1 °F -3.2 °F 3.9 °F 83% 30.07 in 10.0 mi SSE 6.9 mph - N/A   Mostly Cloudy
4:53 AM 9.0 °F 0.6 °F 5.0 °F 84% 30.09 in 10.0 mi SSW 4.6 mph - N/A   Clear
5:53 AM 8.1 °F 1.4 °F 3.0 °F 80% 30.12 in 10.0 mi SSE 3.5 mph - N/A   Mostly Cloudy
6:53 AM 9.0 °F 2.4 °F 3.9 °F 80% 30.15 in 10.0 mi SE 3.5 mph - N/A   Mostly Cloudy
7:53 AM 10.9 °F - 7.0 °F 84% 30.16 in 10.0 mi Calm Calm - N/A   Overcast
8:53 AM 14.0 °F - 9.0 °F 80% 30.17 in 10.0 mi Calm Calm - N/A   Overcast
9:53 AM 18.0 °F - 10.0 °F 71% 30.19 in 10.0 mi Calm Calm - N/A   Overcast
10:53 AM 19.9 °F - 10.9 °F 68% 30.21 in 10.0 mi Calm Calm - N/A   Overcast
11:53 AM 24.1 °F 19.7 °F 12.0 °F 60% 30.22 in 10.0 mi North 3.5 mph - N/A   Overcast
12:53 PM 28.9 °F 25.2 °F 14.0 °F 54% 30.19 in 10.0 mi NNW 3.5 mph - N/A   Overcast
1:53 PM 28.9 °F 19.8 °F 12.9 °F 51% 30.20 in 10.0 mi NW 10.4 mph - N/A   Overcast
2:53 PM 30.0 °F 21.7 °F 14.0 °F 51% 30.20 in 10.0 mi NW 9.2 mph - N/A   Overcast
3:53 PM 30.9 °F 19.4 °F 12.0 °F 46% 30.22 in 10.0 mi WNW 17.3 mph 23.0 mph N/A   Mostly Cloudy
4:53 PM 30.0 °F 20.5 °F 14.0 °F 51% 30.23 in 10.0 mi NNW 11.5 mph - N/A   Scattered Clouds
5:53 PM 27.0 °F 20.5 °F 14.0 °F 58% 30.27 in 10.0 mi NW 5.8 mph - N/A   Scattered Clouds
6:53 PM 25.0 °F 18.1 °F 14.0 °F 63% 30.30 in 10.0 mi WNW 5.8 mph - N/A   Overcast
7:53 PM 23.0 °F 14.7 °F 14.0 °F 68% 30.32 in 10.0 mi WNW 6.9 mph - N/A   Mostly Cloudy
8:53 PM 21.0 °F 14.6 °F 12.9 °F 71% 30.32 in 10.0 mi WNW 4.6 mph - N/A   Clear
9:53 PM 19.0 °F 12.3 °F 12.9 °F 77% 30.34 in 10.0 mi North 4.6 mph - N/A   Clear
10:53 PM 14.0 °F 6.5 °F 10.0 °F 84% 30.36 in 10.0 mi SE 4.6 mph - N/A   Clear
11:53 PM 12.0 °F - 8.1 °F 84% 30.36 in 10.0 mi Calm Calm - N/A   Clear